Location: Chimay
(50.0486°N, 4.3171°E)
Time: 07:55:42
(UTC+00:00)

CRYOSAT 2 - Pass Details

Date: 08 August 2020
Orbit: 716 x 722 km, 92.0° (Epoch: 26 September)

Event Time Altitude Azimuth Distance (km) Brightness Sun altitude
Rises 22:18:28 0° 6° (N) 3,145 8.7 -21.2°
Reaches altitude 10° 22:20:47 10° 10° (N) 2,220 7.7 -21.4°
Maximum altitude 22:25:40 65° 92° (E) 798 4.4 -21.7°
Enters shadow 22:26:34 53° 142° (SE) 884 4.4 -21.7°
